Overview Statistics Trail Chart Weather Telemetry Raw packets
 

This is the latest recevied weather packets stored in our database for station/object SV1JSO-13. If no packets are shown the sender has not sent any weather packets the latest 10 day(s).

<< 58 59 60 61 62 63 64 >>
Time Temp. Humidity Pressure Rain* Wind** Luminosity Snow
1788267000 31.67° C 39% 1007.7 hPa 0 mm - 582 W/m² -
1788266700 32.22° C 43% 1007.7 hPa 0 mm - 593 W/m² -
1788266400 31.67° C 42% 1007.8 hPa 0 mm - 603 W/m² -
1788266100 30.56° C 49% 1007.9 hPa 0 mm - 618 W/m² -
1788265801 31.11° C 48% 1008.1 hPa 0 mm - 628 W/m² -
1788265500 30.56° C 46% 1008 hPa 0 mm - 639 W/m² -
1788265200 30.56° C 47% 1008.3 hPa 0 mm - 647 W/m² -
1788264900 31.67° C 43% 1008.2 hPa 0 mm - 654 W/m² -
1788264600 31.11° C 44% 1008.3 hPa 0 mm - 663 W/m² -
1788264300 31.11° C 45% 1008.3 hPa 0 mm - 674 W/m² -
1788264024 31.11° C 43% 1008.2 hPa 0 mm - 681 W/m² -
1788263700 31.67° C 40% 1008.2 hPa 0 mm - 691 W/m² -
1788263400 31.11° C 40% 1008.2 hPa 0 mm - 695 W/m² -
1788263100 31.11° C 37% 1008.2 hPa 0 mm - 702 W/m² -
1788262800 31.11° C 41% 1008.4 hPa 0 mm - 709 W/m² -
1788262500 31.67° C 38% 1008.2 hPa 0 mm - 718 W/m² -
1788262218 31.67° C 38% 1008.3 hPa 0 mm - 721 W/m² -
1788261900 31.67° C 38% 1008.1 hPa 0 mm - 727 W/m² -
1788261600 31.67° C 39% 1008.1 hPa 0 mm - 730 W/m² -
1788261300 31.67° C 39% 1008.1 hPa 0 mm - 733 W/m² -
1788261000 31.11° C 39% 1008.1 hPa 0 mm - 739 W/m² -
1788260700 31.67° C 40% 1008.2 hPa 0 mm - 740 W/m² -
1788260400 31.67° C 39% 1008.2 hPa 0 mm - 741 W/m² -
1788260100 31.11° C 42% 1008.3 hPa 0 mm - 745 W/m² -
1788259800 30.56° C 45% 1008.3 hPa 0 mm - 746 W/m² -

* Rain latest hour (hover to see other rain measurements)
** Current wind speed in m/s (hover to see current wind gust speed)